Wind_Speed
17 18 12 18 20 23 21 21 19 18 16 11 12 10 8 8 6 10 13 16 15 14 14 17 20 19 19 20 17 18 17 18 16 14 12 12 9 6 5 4 3 2 2 2
18 13 17 18 15 18 24 22 19 19 18 16 2 3 3 4 5 10 14 17 15 16 17 20 22 22 20 19 18 17 16 17 14 13 12 11 9 7 6 5 4 3 3 2
14 16 17 20 19 18 18 20 12 16 16 14 6 3 6 3 6 10 15 16 16 16 16 22 23 23 23 22 21 19 17 16 18 16 13 11 9 6 4 3 3 3 3 3
13 14 19 17 15 18 20 20 18 18 16 13 5 4 5 4 5 10 11 16 17 15 20 21 22 23 23 21 20 18 18 20 18 16 14 11 10 9 6 3 1 2 3 4
13 13 16 12 11 11 12 15 19 20 18 11 4 3 12 4 1 5 8 11 14 20 23 23 23 23 22 21 20 21 22 24 22 23 19 14 13 9 7 6 4 3 3 5
10 12 18 10 16 2 8 11 9 9 8 4 6 7 8 5 2 7 6 8 12 16 18 21 22 23 23 23 24 26 27 25 26 23 22 20 16 12 9 7 5 4 4 3
12 12 18 11 7 2 10 2 7 8 8 2 3 6 4 2 4 4 7 9 8 12 15 18 20 21 20 22 23 20 20 19 14 12 13 13 13 15 11 8 6 3 4 4
10 15 20 7 2 12 7 5 5 5 6 3 3 3 3 3 5 6 8 11 13 14 15 17 17 20 21 20 21 21 14 12 15 15 16 17 15 13 13 10 5 2 5 7
11 1 5 5 8 8 16 3 4 4 5 2 2 3 4 5 5 6 8 10 12 13 14 17 17 20 20 23 25 19 14 15 16 16 17 16 13 11 13 13 7 10 11 11
10 11 4 3 5 9 7 2 1 3 2 1 2 3 4 5 7 6 8 9 8 10 14 16 18 19 20 20 20 17 18 17 16 15 16 15 15 13 12 10 13 12 13 10
11 11 5 4 5 5 4 3 5 6 6 4 1 2 1 4 1 3 5 9 11 11 13 15 17 17 16 20 18 20 20 19 17 15 16 16 16 13 11 11 15 16 15 11
4 12 4 7 6 4 6 6 6 7 9 8 6 5 4 3 2 2 7 9 12 15 13 15 15 17 22 20 20 20 21 18 18 17 16 16 14 13 14 14 9 4 10 6
7 6 6 8 7 6 5 3 5 5 8 8 8 6 6 4 4 4 4 9 11 12 17 15 15 15 18 21 20 21 20 19 18 18 17 16 15 14 13 9 12 10 9 8
6 2 6 7 8 5 5 3 0 4 4 5 7 8 10 8 1 1 3 5 7 9 14 15 17 17 19 22 20 22 20 21 18 17 17 16 16 17 15 13 12 10 12 11
5 5 3 9 7 5 3 3 2 4 5 6 6 6 8 4 12 4 3 5 6 8 9 13 13 15 19 21 22 25 22 23 20 17 19 18 17 17 17 16 16 16 14 13
8 4 6 7 6 4 3 4 3 4 6 6 6 7 7 9 9 8 6 8 9 11 12 14 14 17 20 23 21 19 18 18 18 18 15 15 15 16 17 16 16 15 18 15
10 8 6 6 6 5 5 4 5 4 5 6 7 8 8 9 9 10 8 7 7 8 7 18 16 19 21 21 19 16 16 16 17 14 15 16 17 16 16 15 15 15 15 14
6 7 6 6 5 6 5 5 6 7 7 8 9 11 11 11 10 12 4 5 5 10 4 13 20 17 18 18 17 15 13 13 15 16 14 14 14 14 14 14 14 12 12 13
9 8 8 7 7 6 4 4 6 6 7 8 9 8 8 8 9 7 5 3 5 6 8 4 16 16 16 15 15 13 12 13 14 15 13 11 12 14 14 13 13 13 13 18
11 10 9 8 6 4 4 3 3 5 6 7 7 8 8 9 8 8 6 4 4 4 6 11 12 13 13 13 16 11 11 12 13 14 14 13 14 14 12 10 12 12 12 13
11 9 7 6 5 3 2 2 2 4 5 6 8 9 8 9 6 7 8 2 8 6 4 13 13 12 12 12 12 12 12 13 13 12 13 14 12 12 13 13 13 15 13 13
8 7 5 4 4 3 1 0 1 2 3 4 5 6 6 4 5 6 7 5 5 6 6 5 4 2 4 10 7 10 8 7 9 10 5 5 8 7 12 15 15 13 13 12
8 7 6 5 3 1 2 2 2 1 4 4 5 6 5 8 7 5 4 6 4 3 4 5 4 2 2 3 5 6 4 5 9 9 11 10 14 19 23 19 12 12 16 18
5 5 5 2 2 4 0 2 4 2 3 1 2 4 3 4 3 7 6 5 5 3 2 1 3 3 4 6 7 6 7 7 9 13 16 17 16 13 10 6 6 5 9 15
6 8 6 4 5 3 3 3 7 7 5 6 3 3 2 6 5 5 9 8 5 4 7 3 3 3 5 8 10 12 14 14 14 14 13 14 15 14 13 11 10 11 17 22
6 6 9 4 1 4 7 2 2 4 4 5 4 4 6 6 5 6 5 2 3 2 4 9 7 6 3 2 3 6 8 8 9 10 10 11 14 15 15 16 18 19 19 23
6 3 3 3 4 2 4 3 4 0 4 2 3 4 3 1 5 2 2 1 4 2 1 3 4 6 2 2 6 4 3 4 7 8 9 12 13 14 13 14 14 13 12 16
Wind_Direction
254 275 248 239 217 230 241 252 264 277 298 313 43 39 10 309 155 172 182 174 177 173 161 160 163 170 176 175 181 168 184 161 172 174 156 149 153 152 149 139 131 127 125 109
255 259 258 264 265 233 227 239 247 262 279 300 44 11 346 318 187 192 186 185 183 176 170 171 175 175 178 174 172 172 183 167 161 144 152 154 156 156 157 152 138 129 123 133
242 245 244 244 242 245 254 257 249 250 257 264 310 319 340 306 230 200 192 191 189 185 181 180 179 184 180 175 173 173 172 155 151 156 159 154 149 148 152 154 147 151 162 167
258 250 244 252 257 226 246 255 243 249 256 250 191 292 278 283 247 196 200 191 191 185 183 177 182 187 184 170 169 171 152 145 152 156 155 159 154 155 158 162 188 202 195 180
247 239 258 261 231 262 260 251 237 249 253 243 128 310 247 161 235 198 194 200 197 196 179 172 183 186 176 169 171 161 160 152 156 162 163 173 167 168 170 162 166 187 195 180
243 257 260 258 7 233 239 254 251 312 243 285 105 261 84 23 98 155 159 201 190 195 163 168 181 183 177 172 169 168 158 163 176 171 169 169 163 165 167 164 171 160 189 176
232 246 236 58 65 124 224 70 24 350 12 22 308 50 51 60 104 130 151 146 172 164 170 185 184 174 164 168 170 163 155 156 166 164 172 165 160 159 157 144 129 142 203 198
251 262 258 53 253 315 22 80 25 38 41 21 37 50 63 86 122 147 154 151 171 171 174 177 178 163 164 170 167 163 172 173 167 172 171 162 157 153 137 100 98 209 215 232
287 62 26 33 92 31 314 34 34 0 38 40 180 147 114 123 131 141 144 157 173 173 170 163 175 171 164 170 175 179 171 175 167 161 170 169 171 170 135 149 177 215 229 229
262 258 153 134 139 163 212 57 18 30 54 348 180 129 143 138 142 140 143 158 165 159 149 163 168 173 181 181 164 165 172 174 167 166 164 177 182 178 156 146 221 230 232 222
251 233 154 169 113 122 134 100 75 70 41 30 310 147 273 143 141 162 171 149 154 158 164 168 171 180 188 169 169 174 177 176 172 173 174 184 183 172 169 202 228 227 213 212
313 6 146 125 114 121 105 77 58 52 72 60 45 40 3 311 14 230 162 180 174 165 169 175 178 172 173 175 181 179 175 177 181 177 176 181 186 188 204 192 207 204 179 166
359 8 99 142 124 90 96 64 46 43 29 49 59 53 33 28 47 13 211 177 186 170 162 174 183 178 166 171 179 182 181 179 173 175 180 186 196 200 199 193 191 186 179 176
339 56 110 132 122 84 55 17 174 47 30 32 355 18 33 357 275 18 243 219 205 203 158 165 182 183 180 184 184 178 183 182 180 186 189 196 202 202 196 192 191 191 196 195
220 317 253 119 105 87 72 319 39 15 4 354 356 21 32 8 302 323 281 232 221 226 199 174 190 182 181 178 177 177 174 178 192 201 203 200 198 201 201 193 201 200 180 199
150 146 87 105 102 95 97 51 30 15 352 0 354 350 326 280 269 274 259 237 244 210 207 169 194 180 171 176 179 183 180 183 198 210 199 202 205 208 209 208 206 209 191 200
151 141 150 140 119 110 89 60 26 25 10 0 340 336 317 318 302 283 264 290 234 269 238 167 169 173 177 175 179 182 195 192 204 212 202 202 210 209 213 212 217 221 219 224
126 145 131 123 127 106 79 60 49 29 22 0 346 356 4 345 323 324 290 280 238 234 218 172 168 173 176 184 192 199 199 189 195 214 209 203 217 221 220 223 227 226 225 150
134 121 117 106 93 87 74 54 48 46 26 21 13 15 6 354 341 325 335 287 245 232 207 159 170 176 188 191 195 205 206 200 192 213 216 215 212 226 224 228 227 228 231 166
138 128 118 116 119 116 105 68 39 38 26 18 21 34 21 11 2 349 327 323 331 318 273 185 182 196 198 192 206 223 208 218 213 207 210 215 215 218 236 236 247 235 224 232
144 147 136 145 136 144 134 81 22 30 16 17 17 18 26 349 17 24 12 41 16 358 324 172 174 201 202 191 197 233 233 207 223 214 211 217 225 232 226 233 224 237 226 228
154 153 158 144 182 160 194 248 26 354 0 0 0 13 356 32 11 69 62 68 37 43 71 126 125 128 180 172 212 225 239 248 226 232 286 213 220 250 260 260 242 231 243 237
148 148 152 180 195 114 165 242 239 307 324 345 343 358 28 13 17 35 68 43 69 83 76 71 16 165 190 196 225 233 244 246 247 243 244 239 235 232 247 250 249 241 240 243
164 166 164 113 187 202 19 266 342 10 338 299 355 13 33 79 16 64 79 76 73 85 89 156 212 216 229 230 252 212 242 249 254 263 248 246 242 248 246 243 260 278 280 303
189 160 182 201 221 165 223 217 233 163 159 107 122 140 49 86 124 122 101 93 114 199 110 109 140 184 227 241 247 251 252 246 250 256 252 250 247 254 259 253 251 252 263 277
190 224 144 155 147 194 253 237 247 60 84 102 98 95 93 113 124 151 105 63 132 259 202 151 169 159 180 221 241 258 249 245 244 240 235 242 241 243 250 258 266 270 268 264
210 28 145 229 191 198 337 18 357 59 232 113 154 173 154 145 87 0 341 101 329 323 303 347 225 171 235 220 226 192 172 205 219 225 238 240 241 246 242 233 233 224 215 237
Height
703 696 695 701 708 712 717 713 725 708 706 693 693 697 699 696 694 699 706 710 715 722 730 739 745 752 755 757 760 762 767 771 778 780 783 787 791 794 795 796 796 796 797 798
716 702 702 709 697 696 699 703 707 708 708 683 681 687 694 698 695 701 706 707 714 720 729 738 742 748 753 756 761 766 769 771 777 782 788 790 793 794 796 796 796 797 798 800
729 705 706 720 705 700 698 692 694 716 700 683 691 690 693 694 697 699 701 705 711 717 725 732 740 746 750 755 761 766 770 774 778 784 788 791 794 797 799 799 799 798 799 800
722 710 742 696 672 678 691 686 682 686 684 680 683 687 688 688 690 695 698 702 706 712 721 729 737 744 748 754 761 767 771 775 780 785 788 791 792 794 797 799 801 801 801 801
725 719 703 691 681 685 692 694 675 681 675 671 673 683 688 686 690 691 695 700 706 709 716 726 734 742 747 754 761 766 770 774 778 780 784 789 790 793 796 798 800 802 804 802
709 723 729 687 676 658 667 705 670 666 670 673 678 705 704 694 694 696 700 703 706 710 716 725 733 740 746 753 759 763 767 771 772 778 782 784 787 793 796 797 799 799 804 805
709 715 721 674 679 675 716 714 684 681 677 682 689 696 698 698 700 700 703 708 711 714 722 729 735 741 749 755 760 765 768 773 779 782 786 787 791 792 794 793 798 799 804 805
704 713 721 682 689 710 703 693 690 689 690 691 692 696 697 700 702 703 706 711 716 719 724 730 737 742 749 755 761 767 771 775 778 782 784 787 789 791 790 789 795 803 806 805
700 717 696 696 710 705 704 698 697 695 692 693 694 696 697 701 705 706 709 714 716 719 724 733 739 744 749 755 760 764 770 775 778 781 783 786 789 791 787 789 794 804 803 800
696 683 689 696 695 696 703 697 696 693 692 694 693 694 698 700 704 709 713 718 719 720 728 735 740 745 749 753 758 762 768 772 775 779 782 786 789 790 789 788 798 799 799 797
695 684 690 693 692 698 700 697 696 697 698 698 697 697 699 703 706 708 714 717 723 728 731 735 739 743 747 752 756 761 765 769 773 777 781 785 786 785 787 792 794 795 796 795
712 704 692 698 695 696 701 703 703 702 703 705 703 704 706 707 708 710 714 719 721 726 732 735 738 742 746 750 754 759 762 766 770 775 779 783 786 787 788 788 789 792 793 795
695 694 694 704 699 701 708 710 711 711 710 708 709 709 709 709 712 716 715 717 719 721 728 733 737 740 743 747 752 756 760 764 769 773 776 779 782 784 786 789 788 791 793 796
695 696 703 700 708 712 714 716 716 715 716 718 718 717 714 714 715 716 718 719 720 722 726 731 736 738 742 745 750 754 758 762 766 770 773 776 779 782 784 787 789 790 792 794
707 706 700 704 714 720 721 719 717 718 719 719 718 718 719 718 718 714 718 720 721 723 725 730 734 736 740 743 747 751 755 759 762 765 766 768 772 775 777 780 783 785 789 792
711 713 711 714 718 720 721 721 720 722 723 723 724 723 724 725 723 721 718 721 720 719 723 729 732 734 738 741 746 750 753 756 757 758 760 764 766 768 770 771 774 777 780 783
713 723 723 723 722 724 727 729 727 727 728 728 727 726 725 722 719 718 720 720 722 723 724 725 730 734 736 740 744 748 752 753 754 755 757 761 762 764 765 766 768 770 772 774
711 715 716 719 722 724 728 729 731 731 731 731 729 727 726 726 723 719 719 723 724 724 725 726 729 733 736 739 741 741 743 746 752 752 752 756 758 760 762 763 764 765 768 772
715 718 721 723 726 728 730 731 732 733 733 732 731 732 731 730 728 725 725 725 725 725 726 728 729 732 734 736 739 739 741 742 747 750 751 753 756 758 759 760 761 762 764 768
718 721 724 727 729 731 732 733 733 734 734 733 731 731 732 732 730 728 726 725 725 725 725 727 730 733 734 735 739 739 740 742 743 747 749 751 753 756 758 759 759 758 761 763
721 724 726 728 730 732 733 734 734 735 735 734 733 733 734 733 731 730 728 727 728 727 726 727 731 733 734 735 740 740 738 740 742 743 747 751 751 754 754 755 756 757 757 760
720 723 725 727 729 731 732 733 734 734 735 735 735 734 733 732 730 730 731 731 731 730 729 730 731 732 733 736 739 738 740 741 742 745 747 748 751 752 753 753 753 754 757 758
721 723 725 728 728 729 732 732 732 734 734 734 734 734 733 733 732 731 733 734 733 733 732 732 733 734 736 738 739 741 742 743 745 746 747 748 750 751 751 750 750 752 755 756
724 725 726 728 729 729 732 732 731 732 734 734 734 735 733 734 734 733 735 735 735 735 735 735 735 736 738 739 740 740 742 743 745 745 745 746 746 747 747 747 750 749 750 754
723 725 727 728 729 731 731 732 730 730 732 734 735 734 733 733 735 735 734 736 736 735 735 735 736 737 739 739 740 741 741 742 742 743 743 744 744 745 745 746 747 748 748 752
723 723 725 727 730 730 728 728 726 727 727 729 731 731 733 734 735 733 734 735 734 733 729 731 734 735 735 736 737 738 738 739 739 740 741 742 742 742 743 744 745 745 745 746
723 726 727 727 728 729 730 730 729 730 729 728 728 729 730 731 733 733 734 731 731 729 729 729 728 731 730 732 732 732 734 736 737 737 739 739 740 741 742 742 743 743 741 740